| time (UTC) | temp F | wind direction | speed MPH | gust MPH | rain 1hr in | rain 24hr in | rain mn in | humidity % | barometer mb |
| 20260831050738 | 76 | 19 | 2.0 | 2.0 | 0.00 | 2.55 | 0.00 | 99 | 1010.5 |
| 20260831050216 | 76 | 37 | 0.0 | 1.0 | 0.00 | 2.55 | 0.00 | 99 | 1010.7 |
| 20260831045653 | 76 | 212 | 0.0 | 1.0 | 0.00 | 2.56 | 2.56 | 99 | 1010.8 |
| 20260831045131 | 76 | 226 | 0.0 | 0.0 | 0.00 | 2.56 | 2.56 | 99 | 1010.7 |
| 20260831044609 | 76 | 25 | 0.0 | 0.0 | 0.00 | 2.56 | 2.56 | 99 | 1010.9 |
| 20260831044047 | 76 | 25 | 0.0 | 1.0 | 0.00 | 2.56 | 2.56 | 99 | 1010.7 |
| 20260831043525 | 76 | 44 | 0.0 | 1.0 | 0.00 | 2.56 | 2.56 | 99 | 1010.8 |
| 20260831043002 | 76 | 224 | 0.0 | 0.0 | 0.00 | 2.56 | 2.56 | 99 | 1010.9 |
| 20260831042440 | 76 | 219 | 2.0 | 2.0 | 0.00 | 2.56 | 2.56 | 99 | 1011.1 |
| 20260831041918 | 76 | 213 | 0.0 | 1.0 | 0.00 | 2.56 | 2.56 | 99 | 1010.8 |
| 20260831041356 | 76 | 104 | 0.0 | 0.0 | 0.00 | 2.56 | 2.56 | 99 | 1011.0 |
| 20260831040834 | 76 | 25 | 0.0 | 0.0 | 0.00 | 2.56 | 2.56 | 99 | 1011.1 |
| 20260831040312 | 76 | 44 | 0.0 | 0.0 | 0.00 | 2.56 | 2.56 | 99 | 1011.1 |
| 20260831035750 | 76 | 44 | 0.0 | 0.0 | 0.00 | 2.56 | 2.56 | 99 | 1010.9 |
| 20260831035227 | 76 | 29 | 0.0 | 1.0 | 0.00 | 2.56 | 2.56 | 99 | 1010.9 |
| 20260831034704 | 76 | 44 | 0.0 | 0.0 | 0.00 | 2.56 | 2.56 | 99 | 1011.0 |
| 20260831034142 | 76 | 224 | 0.0 | 0.0 | 0.00 | 2.56 | 2.56 | 99 | 1011.1 |
| 20260831033620 | 76 | 217 | 0.0 | 0.0 | 0.00 | 2.56 | 2.56 | 99 | 1010.7 |
| 20260831033058 | 76 | 234 | 0.0 | 1.0 | 0.00 | 2.56 | 2.56 | 99 | 1010.8 |
| 20260831032536 | 76 | 269 | 0.0 | 0.0 | 0.00 | 2.56 | 2.56 | 99 | 1010.9 |
| 20260831032014 | 76 | 12 | 2.0 | 2.0 | 0.00 | 2.56 | 2.56 | 99 | 1010.9 |
| 20260831031450 | 76 | 39 | 2.0 | 2.0 | 0.00 | 2.56 | 2.56 | 99 | 1011.0 |
| 20260831030926 | 76 | 44 | 0.0 | 0.0 | 0.00 | 2.56 | 2.56 | 99 | 1010.9 |
| 20260831030404 | 76 | 333 | 0.0 | 0.0 | 0.00 | 2.56 | 2.56 | 99 | 1011.0 |
| 20260831025842 | 76 | 209 | 0.0 | 0.0 | 0.00 | 2.56 | 2.56 | 99 | 1010.7 |
| 20260831025320 | 76 | 193 | 0.0 | 0.0 | 0.00 | 2.56 | 2.56 | 99 | 1011.0 |
| 20260831024758 | 76 | 343 | 0.0 | 0.0 | 0.00 | 2.56 | 2.56 | 99 | 1011.0 |
| 20260831024236 | 76 | 94 | 0.0 | 0.0 | 0.00 | 2.56 | 2.56 | 99 | 1010.8 |
| 20260831023713 | 76 | 217 | 0.0 | 0.0 | 0.00 | 2.56 | 2.56 | 99 | 1010.7 |
| 20260831023151 | 76 | 25 | 0.0 | 1.0 | 0.00 | 2.56 | 2.56 | 99 | 1010.9 |
| 20260831022629 | 76 | 304 | 0.0 | 0.0 | 0.00 | 2.56 | 2.56 | 99 | 1010.8 |
| 20260831022107 | 76 | 28 | 0.0 | 1.0 | 0.00 | 2.56 | 2.56 | 99 | 1010.8 |
| 20260831021546 | 76 | 37 | 0.0 | 0.0 | 0.00 | 2.56 | 2.56 | 99 | 1010.7 |
| 20260831021024 | 76 | 25 | 0.0 | 0.0 | 0.00 | 2.56 | 2.56 | 99 | 1010.6 |
| 20260831020459 | 76 | 205 | 0.0 | 0.0 | 0.00 | 2.56 | 2.56 | 99 | 1010.6 |
| 20260831015937 | 76 | 203 | 0.0 | 1.0 | 0.00 | 2.56 | 2.56 | 99 | 1010.6 |
| 20260831015414 | 76 | 205 | 0.0 | 1.0 | 0.00 | 2.56 | 2.56 | 99 | 1010.5 |
| 20260831014852 | 76 | 3 | 1.0 | 2.0 | 0.00 | 2.56 | 2.56 | 99 | 1010.4 |
| 20260831014329 | 76 | 345 | 0.0 | 0.0 | 0.00 | 2.56 | 2.56 | 99 | 1010.5 |
| 20260831013807 | 76 | 142 | 0.0 | 0.0 | 0.00 | 2.56 | 2.56 | 99 | 1010.2 |
| 20260831013245 | 76 | 202 | 0.0 | 0.0 | 0.00 | 2.56 | 2.56 | 99 | 1010.2 |
| 20260831012723 | 76 | 209 | 0.0 | 1.0 | 0.00 | 2.56 | 2.56 | 99 | 1010.1 |
| 20260831012201 | 76 | 117 | 0.0 | 0.0 | 0.00 | 2.56 | 2.56 | 99 | 1010.1 |
| 20260831011639 | 76 | 50 | 0.0 | 2.0 | 0.00 | 2.56 | 2.56 | 99 | 1010.0 |
| 20260831011117 | 76 | 194 | 0.0 | 1.0 | 0.00 | 2.56 | 2.56 | 99 | 1009.8 |
| 20260831010555 | 76 | 135 | 0.0 | 0.0 | 0.00 | 2.56 | 2.56 | 99 | 1009.8 |
| 20260831010033 | 76 | 356 | 0.0 | 0.0 | 0.00 | 2.56 | 2.56 | 99 | 1009.7 |
| 20260831005511 | 76 | 8 | 0.0 | 1.0 | 0.00 | 2.56 | 2.56 | 99 | 1009.6 |
| 20260831004948 | 76 | 48 | 1.0 | 2.0 | 0.00 | 2.56 | 2.56 | 99 | 1009.8 |
| 20260831004426 | 76 | 209 | 0.0 | 0.0 | 0.00 | 2.56 | 2.56 | 99 | 1009.6 |
| 20260831003904 | 76 | 157 | 0.0 | 2.0 | 0.00 | 2.56 | 2.56 | 99 | 1009.6 |
| 20260831003342 | 77 | 107 | 0.0 | 0.0 | 0.00 | 2.56 | 2.56 | 98 | 1009.7 |
| 20260831002820 | 77 | 41 | 1.0 | 1.0 | 0.00 | 2.56 | 2.56 | 97 | 1009.7 |
| 20260831002258 | 77 | 234 | 2.0 | 4.0 | 0.00 | 2.56 | 2.56 | 97 | 1009.6 |
| 20260831001736 | 77 | 202 | 0.0 | 2.0 | 0.00 | 2.56 | 2.56 | 97 | 1009.6 |
| 20260831001214 | 77 | 271 | 1.0 | 3.0 | 0.00 | 2.56 | 2.56 | 98 | 1009.6 |
| 20260831000652 | 77 | 154 | 0.0 | 4.0 | 0.00 | 2.56 | 2.56 | 98 | 1009.4 |
| 20260831000129 | 76 | 245 | 1.0 | 1.0 | 0.00 | 2.56 | 2.56 | 98 | 1009.4 |
| 20260830235607 | 77 | 176 | 1.0 | 1.0 | 0.00 | 2.56 | 2.56 | 98 | 1009.1 |
| 20260830235045 | 77 | 76 | 0.0 | 1.0 | 0.00 | 2.56 | 2.56 | 98 | 1009.2 |
| 20260830234523 | 77 | 326 | 0.0 | 2.0 | 0.00 | 2.56 | 2.56 | 98 | 1009.1 |
| 20260830233959 | 77 | 50 | 0.0 | 1.0 | 0.00 | 2.56 | 2.56 | 98 | 1008.9 |
| 20260830233437 | 76 | 273 | 1.0 | 1.0 | 0.00 | 2.56 | 2.56 | 99 | 1008.9 |
| 20260830232914 | 77 | 113 | 0.0 | 1.0 | 0.00 | 2.56 | 2.56 | 99 | 1009.0 |
| 20260830232352 | 76 | 269 | 0.0 | 1.0 | 0.00 | 2.56 | 2.56 | 99 | 1008.9 |
| 20260830231830 | 76 | 0 | 0.0 | 1.0 | 0.00 | 2.56 | 2.56 | 99 | 1008.8 |
| 20260830231307 | 77 | 25 | 0.0 | 1.0 | 0.00 | 2.56 | 2.56 | 99 | 1008.9 |
| 20260830230745 | 77 | 230 | 0.0 | 0.0 | 0.00 | 2.56 | 2.56 | 99 | 1008.8 |
| 20260830230223 | 77 | 224 | 0.0 | 1.0 | 0.00 | 2.56 | 2.56 | 98 | 1008.9 |
| 20260830225701 | 78 | 217 | 0.0 | 0.0 | 0.00 | 2.56 | 2.56 | 96 | 1008.7 |
| 20260830225139 | 78 | 209 | 0.0 | 2.0 | 0.00 | 2.56 | 2.56 | 94 | 1008.6 |
| 20260830224617 | 78 | 135 | 0.0 | 1.0 | 0.00 | 2.56 | 2.56 | 93 | 1008.8 |
| 20260830224055 | 78 | 233 | 0.0 | 2.0 | 0.00 | 2.56 | 2.56 | 95 | 1008.6 |
| 20260830223533 | 79 | 44 | 0.0 | 0.0 | 0.00 | 2.56 | 2.56 | 96 | 1008.5 |
| 20260830223011 | 78 | 50 | 0.0 | 0.0 | 0.00 | 2.56 | 2.56 | 96 | 1008.5 |
| 20260830222449 | 78 | 166 | 0.0 | 0.0 | 0.00 | 2.56 | 2.56 | 95 | 1008.7 |
| 20260830221926 | 79 | 255 | 0.0 | 0.0 | 0.00 | 2.56 | 2.56 | 94 | 1008.6 |
| 20260830221404 | 79 | 268 | 1.0 | 2.0 | 0.00 | 2.56 | 2.56 | 94 | 1008.5 |
| 20260830220842 | 79 | 44 | 0.0 | 0.0 | 0.00 | 2.56 | 2.56 | 93 | 1008.4 |
| 20260830220320 | 79 | 44 | 0.0 | 1.0 | 0.00 | 2.56 | 2.56 | 90 | 1008.6 |
| 20260830215758 | 79 | 229 | 0.0 | 0.0 | 0.00 | 2.56 | 2.56 | 94 | 1008.6 |
| 20260830215236 | 79 | 248 | 1.0 | 2.0 | 0.00 | 2.56 | 2.56 | 93 | 1008.5 |
| 20260830214714 | 79 | 30 | 0.0 | 1.0 | 0.00 | 2.56 | 2.56 | 93 | 1008.5 |
| 20260830214152 | 79 | 50 | 2.0 | 3.0 | 0.00 | 2.56 | 2.56 | 91 | 1008.2 |
| 20260830213630 | 80 | 19 | 3.0 | 3.0 | 0.00 | 2.56 | 2.56 | 94 | 1008.1 |
| 20260830213108 | 80 | 351 | 0.0 | 1.0 | 0.00 | 2.56 | 2.56 | 94 | 1008.0 |
| 20260830212546 | 80 | 135 | 0.0 | 0.0 | 0.00 | 2.56 | 2.56 | 95 | 1008.0 |
| 20260830212024 | 80 | 315 | 0.0 | 0.0 | 0.00 | 2.56 | 2.56 | 95 | 1008.3 |
| 20260830211501 | 80 | 242 | 0.0 | 0.0 | 0.00 | 2.56 | 2.56 | 95 | 1008.2 |
| 20260830210938 | 79 | 142 | 0.0 | 0.0 | 0.00 | 2.56 | 2.56 | 94 | 1008.3 |
| 20260830210415 | 79 | 25 | 0.0 | 2.0 | 0.00 | 2.56 | 2.56 | 94 | 1008.5 |
| 20260830205852 | 79 | 37 | 0.0 | 0.0 | 0.00 | 2.56 | 2.56 | 96 | 1008.4 |
| 20260830205330 | 79 | 44 | 0.0 | 0.0 | 0.01 | 2.56 | 2.56 | 96 | 1008.4 |
| 20260830204807 | 78 | 335 | 1.0 | 1.0 | 0.01 | 2.56 | 2.56 | 97 | 1008.5 |
| 20260830204246 | 78 | 204 | 1.0 | 2.0 | 0.01 | 2.56 | 2.56 | 96 | 1008.5 |
| 20260830203743 | 78 | 69 | 0.0 | 2.0 | 0.02 | 2.56 | 2.56 | 95 | 1008.4 |
| 20260830203241 | 78 | 59 | 0.0 | 1.0 | 0.02 | 2.56 | 2.56 | 97 | 1008.3 |
| 20260830202738 | 78 | 31 | 0.0 | 2.0 | 0.02 | 2.56 | 2.56 | 97 | 1008.4 |
| 20260830193430 | 76 | 142 | 0.0 | 1.0 | 0.07 | 2.54 | 2.53 | 99 | 1009.3 |
| 20260830193359 | 76 | 142 | 0.0 | 1.0 | 0.07 | 0.00 | 2.53 | 99 | 1009.3 |
| 20260830193314 | 76 | 154 | 0.0 | 2.0 | 0.07 | 0.00 | 2.53 | 99 | 1009.1 |